Location: ?????
(55.6500°N, 37.2500°E)
Time: 02:07:30
(UTC+00:00)

Cosmos 1805 Rocket - Pass Details

Date: 19 May 2025
Orbit: 600 x 623 km, 82.5° (Epoch: 14 June)

Event Time Altitude Azimuth Distance (km) Brightness Sun altitude
Rises 21:23:34 0° 343° (NNW) 2,921 8.6 -14.4°
Reaches altitude 10° 21:25:53 10° 337° (NNW) 2,008 7.3 -14.4°
Maximum altitude 21:30:05 42° 267° (W) 895 4.3 -14.4°
Enters shadow 21:32:38 21° 207° (SSW) 1,410 4.9 -14.4°
